STARLINK-1880 (47165 NORAD) Tracking and Keplerian Element Data

This shows tracking and keplerian element data for the satellite.

Feedback or suggestion? Click here.




ElementValue
Catalog47165
NameSTARLINK-1880
Epoch Orbit181
Epoch Day99.91667824
Epoch Year2021
RAAN78.6613
Inclination53.0545
Eccentricity0.0001278
Argument of Perigee85.6101
Mean Anonmoly295.3064
Mean Motion15.06397357
Decay Rate0.00025153
L11 47165U 20088AV 21099.91667824 .00025153 00000-0 17016-2 0 9998
L22 47165 53.0545 78.6613 0001278 85.6101 295.3064 15.06397357 1812

Live tracking and technical data element details for STARLINK-1880 (NORAD 47165). STARLINK-1880 can be tracked NOW for your location showing map with azimuth and elevation plus other details from your city location.

Track the satellite on the map from your city or location and see movement details for azimuth, elevation, latitude, longitude, range, height, and movement on the map or in text.







IsCatalogInMostPopularTable: catalog: 47165, numindb: 48
Update: records affected: 1



GetName: 47165 STARLINK-1880

Hit Count: updated at: Sat, 10 Apr 2021 19:31:34 GMT